Printer-friendly version
Follow the MPC on Twitter Follow the MPC on Facebook The MPC blog
Minor Planet Center

MPEC 2010-N02 : 2010 MR87

The following Minor Planet Electronic Circular may be linked-to from your own Web pages, but must not otherwise be redistributed electronically.

A form allowing access to any MPEC is at the bottom of this page.


Read MPEC 2010-N01 Read MPEC 2010-N03


M.P.E.C. 2010-N02                                Issued 2010 July 1, 11:39 UT

     The Minor Planet Electronic Circulars contain information on unusual
         minor planets and routine data on comets.  They are published
   on behalf of Commission 20 of the International Astronomical Union by the
          Minor Planet Center, Smithsonian Astrophysical Observatory,
                          Cambridge, MA 02138, U.S.A.

             Prepared using the Tamkin Foundation Computer Network

                              MPC@CFA.HARVARD.EDU
       URL http://www.minorplanetcenter.org/iau/mpc.html  ISSN 1523-6714

                                   2010 MR87

Observations:
     K10M87R* S2010 06 22.12870 16 21 47.07 +63 33 16.7          22   R EN002C51
     K10M87R  s2010 06 22.12870 1 - 1210.5926 +  945.8169 + 6725.9944   EN002C51
     K10M87R  S2010 06 22.26100 16 21 39.31 +63 35 48.3                 EN002C51
     K10M87R  s2010 06 22.26100 1 - 1214.5833 +  943.4090 + 6725.6709   EN002C51
     K10M87R  S2010 06 22.39331 16 21 31.53 +63 38 22.9                 EN002C51
     K10M87R  s2010 06 22.39331 1 - 1218.3299 +  940.4736 + 6725.4595   EN002C51
     K10M87R  S2010 06 22.52561 16 21 23.73 +63 40 51.7                 EN002C51
     K10M87R  s2010 06 22.52561 1 - 1223.7487 +  937.5311 + 6725.1232   EN002C51
     K10M87R  S2010 06 22.79022 16 21 08.35 +63 45 49.1                 EN002C51
     K10M87R  s2010 06 22.79022 1 - 1231.9306 +  932.3291 + 6723.9781   EN002C51
     K10M87R KC2010 06 30.12451516 14 37.48 +65 49 11.8          21.3 V EN002H21
     K10M87R KC2010 06 30.14353 16 14 36.80 +65 49 29.3          20.5 R EN002H36
     K10M87R KC2010 06 30.14965116 14 36.04 +65 49 34.5          21.2 V EN002H21
     K10M87R KC2010 06 30.16159 16 14 35.77 +65 49 44.9          20.9 R EN002H36
     K10M87R KC2010 06 30.17891716 14 34.28 +65 50 01.2          21.2 V EN002H21
     K10M87R KC2010 06 30.18145 16 14 34.63 +65 50 01.3          20.0 R EN002H36
     K10M87R KC2010 07 01.15054 16 13 49.72 +66 04 15.9          21.0 R EN002H36
     K10M87R KC2010 07 01.16498 16 13 48.91 +66 04 29.1          20.7 R EN002H36
     K10M87R KC2010 07 01.17220 16 13 48.47 +66 04 35.4          20.9 R EN002H36
     K10M87R 5C2010 07 01.21319 16 13 46.82 +66 05 12.4          21.1 R EN002673
     K10M87R 5C2010 07 01.21840 16 13 46.52 +66 05 16.7                 EN002673
     K10M87R 5C2010 07 01.23333 16 13 45.64 +66 05 29.2                 EN002673
     K10M87R 5C2010 07 01.24068 16 13 45.28 +66 05 35.2                 EN002673

Observer details:
673 Table Mountain Observatory, Wrightwood.  Observer D. Mayes.  0.6-m f/16
    Cassegrain + CCD.
H21 Astronomical Research Observatory, Westfield.  Observer R. Holmes.  0.81-m
    f/4.0 astrograph + CCD.
H36 Sandlot Observatory, Scranton.  Observer G. Hug.  0.56-m reflector + CCD.
C51 WISE.  Measurers A. Mainzer, E. Wright, J. Bauer, T. Grav, J. Dailey, J.
    Masiero, R. Cutri, R. McMillan, R. Walker.
    (http://wise.ssl.berkeley.edu/mission_sci.html)

Orbital elements:
2010 MR87                                                Earth MOID = 0.1497 AU
Epoch 2010 July 23.0 TT = JDT 2455400.5                 MPC
M 345.93514              (2000.0)            P               Q
n   0.43665024     Peri.  132.29449     +0.81084968     +0.56488521
a   1.7207334      Node   195.52847     -0.53940618     +0.82279027
e   0.3867931      Incl.   34.87056     +0.22707659     -0.06261690
P   2.26           H   19.5           G   0.15           U   9
Residuals in seconds of arc
100622 C51  0.4+  0.1+    100630 H36  0.9+  0.0     100701 H36  0.4+  0.2-
100622 C51  0.4+  0.7-    100630 H21  0.2-  0.3-    100701 H36  0.2+  0.2-
100622 C51 (0.2+  2.2+)   100630 H36  1.0+  0.7-    100701 673  0.2+  0.5+
100622 C51  0.3-  0.1-    100630 H21  0.7-  0.4+    100701 673  0.1+  0.2+
100622 C51 (0.1-  2.9-)   100630 H36 (1.0+  2.1-)   100701 673  0.1-  0.2-
100630 H21  0.3-  0.4-    100701 H36  0.4+  0.9-    100701 673  0.3+  0.5-

Ephemeris:
2010 MR87                a,e,i = 1.72, 0.39, 35                  q = 1.0552
Date    TT    R. A. (2000) Decl.     Delta      r     Elong.  Phase     V
2010 06 23    16 20.93   +63 49.9    0.680    1.226    90.4    56.0    21.1
2010 07 03    16 12.48   +66 30.2    0.677    1.181    85.9    59.2    21.1
2010 07 13    16 07.52   +68 29.1    0.664    1.140    82.6    62.2    21.1
2010 07 23    16 07.67   +70 04.0    0.636    1.106    80.5    64.9    21.0
2010 08 02    16 14.18   +71 29.0    0.594    1.080    79.6    67.6    20.9
2010 08 12    16 29.27   +72 52.7    0.538    1.063    80.1    70.0    20.7
2010 08 22    16 58.50   +74 19.3    0.469    1.055    82.2    71.7    20.5
2010 09 01    17 54.54   +75 35.6    0.389    1.058    86.4    72.1    20.1
2010 09 11    19 39.74   +75 08.2    0.302    1.071    94.0    69.7    19.5
2010 09 21    21 56.57   +67 15.3    0.216    1.094   108.9    60.3    18.5
2010 10 01    23 31.00   +41 17.7    0.155    1.124   139.6    35.2    17.2
2010 10 11    00 20.27   +01 22.1    0.167    1.162   167.7    10.5    16.6
2010 10 21    00 47.50   -22 13.6    0.247    1.205   144.7    28.5    18.1
2010 10 31    01 04.91   -31 50.9    0.354    1.253   130.8    36.8    19.2
2010 11 10    01 18.06   -35 31.4    0.471    1.304   122.2    40.0    20.0
2010 11 20    01 29.73   -36 26.5    0.593    1.357   116.0    40.9    20.6
2010 11 30    01 41.17   -35 53.8    0.717    1.412   111.0    40.7    21.1
2010 12 10    01 53.01   -34 28.9    0.842    1.467   106.6    40.1    21.5
2010 12 20    02 05.57   -32 31.7    0.967    1.521   102.5    39.2    21.9

Timothy B. Spahr             (C) Copyright 2010 MPC           M.P.E.C. 2010-N02

Read MPEC 2010-N01 Read MPEC 2010-N03


MPEC number:

Enter an MPEC number in one of the following forms:

  • 1997-B01 (the full form)
  • J97B01 (the packed version of the full form)
  • B01 (the abbreviated form)

Valid HTML 4.01!